Weather History for KMSN - April, 2013

Change the Weather History Date:

Thursday, April 25, 2013

  Actual Average Record
Temperature  
Mean Temperature 44 °F 50 °F  
Max Temperature 50 °F 61 °F 85 °F (1990)
Min Temperature 37 °F 39 °F 21 °F (1972)
Degree Days  
Heating Degree Days 21 15  
Month to date heating degree days 593 489  
Since 1 July heating degree days 6933 6938  
Cooling Degree Days 0 0  
Month to date cooling degree days 0 0  
Year to date cooling degree days 0 0  
Moisture  
Dew Point 31 °F    
Average Humidity 62    
Maximum Humidity 85    
Minimum Humidity 39    
Precipitation  
Precipitation 0.02 in 0.12 in 1.94 in (2009)
Month to date precipitation 5.78 2.82  
Year to date precipitation 13.47 7.70  
Snow  
Snow 0.00 in 0.00 in 0.30 in (1910)
Month to date snowfall 0.3 2.4  
Since 1 July snowfall 70.6 50.5  
Snow Depth 0.00 in    
Sea Level Pressure  
Sea Level Pressure 30.14 in    
Wind  
Wind Speed 7 mph (West)    
Max Wind Speed 15 mph    
Max Gust Speed 22 mph    
Visibility 10 miles    
Events Rain    
T = Trace of Precipitation, MM = Missing Value Source: NWS Daily Summary

Daily Weather History Graph

Daily Weather History Graph

Search for Another Location

Airport or City:

Trip Planner

Search our weather history database for the weather conditions in past years. The results will help you decide how hot, cold, wet, or windy it might be!

Date:

Astronomy

Apr. 25, 2013 Rise Set
Actual Time 5:59 AM CDT 7:52 PM CDT
Civil Twilight 5:28 AM CDT 8:22 PM CDT
Nautical Twilight 4:51 AM CDT 9:00 PM CDT
Astronomical Twilight 4:11 AM CDT 9:40 PM CDT
Moon 8:06 PM CDT (4/25) 5:42 AM CDT (4/25)
Length of Visible Light 14h 54m
Length of Day
13h 52m
Full, 100% of the Moon is Illuminated
Apr 25
Full
Apr 25
Full
May 2
Last Quarter
May 9
New
May 17
First Quarter

Hourly Weather History & Observations

Time (CDT) Temp. Windchill Dew Point Humidity Pressure Visibility Wind Dir Wind Speed Gust Speed Precip Events Conditions
12:53 AM 44.1 °F 39.5 °F 33.1 °F 65% 30.01 in 10.0 mi SW 8.1 mph 19.6 mph 0.00 in   Overcast
1:53 AM 43.0 °F 37.7 °F 33.1 °F 68% 29.99 in - SW 9.2 mph 19.6 mph N/A   Partly Cloudy
2:19 AM 42.8 °F 37.0 °F 33.8 °F 70% 29.98 in 10.0 mi WSW 10.4 mph - N/A   Mostly Cloudy
2:49 AM 42.8 °F 38.0 °F 33.8 °F 70% 29.97 in 10.0 mi SW 8.1 mph - N/A   Mostly Cloudy
2:53 AM 42.1 °F 37.1 °F 34.0 °F 73% 29.99 in 10.0 mi WSW 8.1 mph - N/A   Mostly Cloudy
3:29 AM 39.2 °F 34.2 °F 35.6 °F 87% 29.99 in 9.0 mi Variable 6.9 mph - 0.01 in Rain Light Rain
3:37 AM 39.2 °F 35.9 °F 35.6 °F 87% 29.99 in 9.0 mi Variable 4.6 mph - 0.02 in Rain Light Rain
3:53 AM 39.0 °F 34.0 °F 35.1 °F 86% 30.01 in 10.0 mi West 6.9 mph - 0.02 in   Overcast
4:53 AM 39.0 °F 34.0 °F 32.0 °F 76% 30.04 in 10.0 mi West 6.9 mph - N/A   Scattered Clouds
5:53 AM 37.9 °F 31.5 °F 32.0 °F 79% 30.06 in 10.0 mi WNW 9.2 mph - N/A   Mostly Cloudy
6:53 AM 37.9 °F 33.5 °F 32.0 °F 79% 30.09 in 10.0 mi West 5.8 mph - N/A   Mostly Cloudy
7:03 AM 37.4 °F 29.8 °F 33.8 °F 87% 30.09 in 7.0 mi WNW 11.5 mph 16.1 mph 0.00 in Rain Light Rain
7:26 AM 37.4 °F 32.1 °F 33.8 °F 87% 30.10 in 9.0 mi West 6.9 mph - 0.00 in   Mostly Cloudy
7:53 AM 37.9 °F 33.5 °F 34.0 °F 86% 30.13 in 10.0 mi West 5.8 mph - 0.00 in   Mostly Cloudy
8:30 AM 39.2 °F 33.0 °F 35.6 °F 87% 30.13 in 10.0 mi West 9.2 mph 17.3 mph N/A   Mostly Cloudy
8:45 AM 39.2 °F 33.0 °F 33.8 °F 81% 30.13 in 10.0 mi WNW 9.2 mph 21.9 mph N/A   Mostly Cloudy
8:53 AM 41.0 °F 35.2 °F 35.1 °F 79% 30.16 in 10.0 mi WNW 9.2 mph 17.3 mph N/A   Mostly Cloudy
9:53 AM 42.1 °F 36.1 °F 32.0 °F 67% 30.17 in 10.0 mi WNW 10.4 mph - N/A   Mostly Cloudy
10:22 AM 44.6 °F 38.8 °F 33.8 °F 66% 30.17 in 10.0 mi NW 11.5 mph - N/A   Mostly Cloudy
10:53 AM 44.1 °F 39.0 °F 32.0 °F 63% 30.20 in 10.0 mi West 9.2 mph 18.4 mph N/A   Mostly Cloudy
11:53 AM 45.0 °F 39.7 °F 28.0 °F 52% 30.22 in 10.0 mi WNW 10.4 mph 19.6 mph N/A   Mostly Cloudy
12:53 PM 46.0 °F 43.1 °F 28.0 °F 50% 30.23 in 10.0 mi West 5.8 mph - N/A   Mostly Cloudy
1:53 PM 48.0 °F - 27.0 °F 44% 30.25 in - West 10.4 mph 17.3 mph N/A   Mostly Cloudy
2:53 PM 48.0 °F - 26.1 °F 42% 30.25 in 10.0 mi West 8.1 mph - N/A   Mostly Cloudy
3:53 PM 50.0 °F - 26.1 °F 39% 30.24 in 10.0 mi Variable 5.8 mph - N/A   Mostly Cloudy
4:53 PM 48.9 °F - 26.1 °F 41% 30.25 in 10.0 mi Variable 3.5 mph - N/A   Scattered Clouds
5:53 PM 48.9 °F - 26.1 °F 41% 30.25 in 10.0 mi Variable 3.5 mph - N/A   Scattered Clouds
6:53 PM 48.9 °F - 26.1 °F 41% 30.25 in 10.0 mi WSW 5.8 mph - N/A   Partly Cloudy
7:53 PM 46.9 °F - 27.0 °F 46% 30.24 in 10.0 mi SW 3.5 mph - N/A   Clear
8:53 PM 43.0 °F - 30.0 °F 60% 30.27 in 10.0 mi Calm Calm - N/A   Clear
9:53 PM 43.0 °F 40.3 °F 28.0 °F 56% 30.28 in 10.0 mi South 4.6 mph - N/A   Clear
10:53 PM 42.1 °F 40.2 °F 28.0 °F 58% 30.30 in 10.0 mi South 3.5 mph - N/A   Clear
11:53 PM 42.1 °F 39.2 °F 27.0 °F 55% 30.30 in - South 4.6 mph - N/A   Clear